Jacksonville, IL

5:37 AM CDT on June 20, 2018 (GMT -0500)
Jacksonville Municipal

Weather History for KIJX - June, 2018

Change the Weather History Date:

Thursday, June 14, 2018

  Actual Average (KSPI) Record (KSPI)
Temperature  
Mean Temperature 70 °F -  
Max Temperature 83 °F 85 °F 100 °F (1987)
Min Temperature 57 °F 63 °F 45 °F (1955)
Cooling Degree Days 5    
Growing Degree Days 20 (Base 50)    
Moisture  
Dew Point 61 °F    
Average Humidity 79    
Maximum Humidity 95    
Minimum Humidity 55    
Precipitation  
Precipitation 0.16 in - - ()
Sea Level Pressure  
Sea Level Pressure 30.02 in    
Wind  
Wind Speed 4 mph (ESE)    
Max Wind Speed 30 mph    
Max Gust Speed 48 mph    
Visibility 10 miles    
Events Rain , Thunderstorm    
Averages and records for this station are not official NWS values.
T = Trace of Precipitation, MM = Missing Value Source: NWS Daily Summary

Daily Weather History Graph

Daily Weather History Graph

Search for Another Location

Airport or City:

Astronomy

Jun. 14, 2018 Rise Set
Actual Time 5:32 AM CDT 8:30 PM CDT
Civil Twilight 4:59 AM CDT 9:03 PM CDT
Nautical Twilight 4:18 AM CDT 9:44 PM CDT
Astronomical Twilight 3:30 AM CDT 10:32 PM CDT
Moon 6:29 AM CDT (6/14) 9:31 PM CDT (6/14)
Length of Visible Light 16h 03m
Length of Day
14h 58m
New Moon, 1% of the Moon is Illuminated
Jun 14
New Moon
Jun 20
First Quarter
Jun 27
Full
Jul 6
Last Quarter
Jul 12
New

Hourly Weather History & Observations

Time (CDT) Temp. Heat Index Dew Point Humidity Pressure Visibility Wind Dir Wind Speed Gust Speed Precip Events Conditions
12:15 AM 60.8 °F - 58.1 °F 91% 30.06 in 10.0 mi NNE 3.5 mph - N/A   Clear
12:35 AM 60.1 °F - 57.2 °F 90% 30.05 in 10.0 mi Calm Calm - N/A   Clear
12:55 AM 60.6 °F - 57.2 °F 88% 30.05 in 10.0 mi Calm Calm - N/A   Clear
1:15 AM 60.1 °F - 56.8 °F 89% 30.05 in 10.0 mi East 3.5 mph - N/A   Clear
1:35 AM 60.1 °F - 56.5 °F 88% 30.05 in 10.0 mi Calm Calm - N/A   Clear
1:55 AM 59.9 °F - 56.3 °F 88% 30.06 in 10.0 mi Calm Calm - N/A   Clear
2:15 AM 59.9 °F - 56.3 °F 88% 30.05 in 10.0 mi Calm Calm - N/A   Clear
2:35 AM 59.5 °F - 56.5 °F 90% 30.05 in 10.0 mi Calm Calm - N/A   Clear
2:55 AM 60.1 °F - 56.3 °F 87% 30.05 in 10.0 mi Calm Calm - N/A   Clear
3:15 AM 59.0 °F - 56.3 °F 91% 30.05 in 10.0 mi Calm Calm - N/A   Clear
3:35 AM 59.4 °F - 56.3 °F 90% 30.05 in 10.0 mi Calm Calm - N/A   Clear
3:55 AM 58.3 °F - 55.6 °F 91% 30.05 in 10.0 mi NE 4.6 mph - N/A   Clear
4:15 AM 57.9 °F - 55.8 °F 92% 30.06 in 10.0 mi Calm Calm - N/A   Clear
4:35 AM 57.2 °F - 55.2 °F 93% 30.07 in 10.0 mi NNE 3.5 mph - N/A   Clear
4:55 AM 57.2 °F - 55.4 °F 94% 30.06 in 10.0 mi Calm Calm - N/A   Scattered Clouds
5:15 AM 57.4 °F - 55.4 °F 93% 30.06 in 10.0 mi Calm Calm - N/A   Scattered Clouds
5:35 AM 57.6 °F - 55.4 °F 92% 30.06 in 10.0 mi East 3.5 mph - N/A   Clear
5:55 AM 57.7 °F - 55.2 °F 91% 30.06 in 10.0 mi ESE 3.5 mph - N/A   Clear
6:15 AM 58.3 °F - 55.8 °F 91% 30.05 in 10.0 mi East 5.8 mph - N/A   Clear
6:35 AM 59.7 °F - 56.7 °F 90% 30.05 in 10.0 mi ESE 3.5 mph - N/A   Clear
6:55 AM 62.1 °F - 57.9 °F 86% 30.05 in 10.0 mi Calm Calm - N/A   Clear
7:10 AM 63.5 °F - 58.5 °F 84% 30.05 in 10.0 mi ESE 3.5 mph - N/A   Clear
7:35 AM 66.2 °F - 58.5 °F 76% 30.05 in 10.0 mi SE 5.8 mph - N/A   Clear
7:55 AM 68.2 °F - 59.4 °F 73% 30.05 in 10.0 mi SE 5.8 mph - N/A   Clear
8:15 AM 69.8 °F - 58.5 °F 67% 30.06 in 10.0 mi ESE 8.1 mph - N/A   Clear
8:30 AM 71.4 °F - 59.7 °F 66% 30.06 in 10.0 mi ESE 5.8 mph - N/A   Clear
8:55 AM 72.7 °F - 60.1 °F 64% 30.07 in 10.0 mi East 6.9 mph - N/A   Clear
9:15 AM 74.3 °F - 59.7 °F 60% 30.08 in 10.0 mi East 5.8 mph - N/A   Clear
9:35 AM 75.0 °F - 58.3 °F 56% 30.08 in 10.0 mi ESE 5.8 mph - N/A   Clear
9:55 AM 76.1 °F - 59.5 °F 56% 30.07 in 10.0 mi East 8.1 mph - N/A   Clear
10:15 AM 76.5 °F - 60.1 °F 57% 30.06 in 10.0 mi ESE 5.8 mph - N/A   Clear
10:35 AM 77.4 °F - 60.1 °F 55% 30.06 in 10.0 mi East 8.1 mph - N/A   Clear
10:55 AM 77.7 °F - 61.3 °F 57% 30.06 in 10.0 mi ESE 5.8 mph - N/A   Clear
11:15 AM 78.3 °F - 61.0 °F 55% 30.06 in 10.0 mi ESE 9.2 mph - N/A   Clear
11:35 AM 78.6 °F - 61.7 °F 56% 30.06 in 10.0 mi SE 6.9 mph - N/A   Clear
11:50 AM 79.3 °F - 62.8 °F 57% 30.06 in 10.0 mi ESE 9.2 mph - N/A   Clear
12:15 PM 80.1 °F 81.4 °F 62.6 °F 55% 30.06 in 10.0 mi SSE 5.8 mph - N/A   Clear
12:35 PM 80.4 °F 81.7 °F 62.8 °F 55% 30.05 in 10.0 mi SSE 5.8 mph - N/A   Clear
12:55 PM 81.1 °F 82.5 °F 63.7 °F 55% 30.05 in 10.0 mi SE 5.8 mph - N/A   Clear
1:15 PM 82.0 °F 83.8 °F 64.9 °F 56% 30.04 in 10.0 mi ESE 9.2 mph - N/A   Clear
1:35 PM 81.7 °F 83.3 °F 64.6 °F 56% 30.04 in 10.0 mi ESE 6.9 mph - N/A   Clear
1:50 PM 82.2 °F 84.2 °F 65.5 °F 57% 30.04 in 10.0 mi SSE 8.1 mph - N/A   Clear
2:15 PM 82.6 °F 84.7 °F 65.8 °F 57% 30.04 in 10.0 mi East 3.5 mph - N/A   Clear
2:35 PM 83.3 °F 85.7 °F 66.7 °F 57% 30.05 in 10.0 mi East 3.5 mph - N/A   Scattered Clouds
2:55 PM 81.0 °F 83.2 °F 66.6 °F 61% 30.10 in 10.0 mi North 29.9 mph 42.6 mph N/A   Mostly Cloudy
3:15 PM 67.6 °F - 64.0 °F 88% 30.12 in 1.8 mi North 23.0 mph 48.3 mph 0.14 in   Overcast
3:35 PM 69.1 °F - 64.4 °F 85% 30.07 in 10.0 mi NE 12.7 mph 18.4 mph 0.16 in Rain , Thunderstorm Light Thunderstorms and Rain
3:55 PM 68.9 °F - 64.9 °F 87% 30.03 in 10.0 mi ESE 11.5 mph - 0.16 in   Overcast
4:15 PM 69.8 °F - 63.5 °F 80% 29.95 in 10.0 mi ESE 13.8 mph - N/A Rain Light Rain
4:35 PM 71.2 °F - 63.3 °F 76% 29.96 in 10.0 mi ESE 12.7 mph - N/A   Scattered Clouds
4:55 PM 70.7 °F - 64.2 °F 80% 29.95 in 10.0 mi SE 8.1 mph - N/A   Clear
5:15 PM 71.6 °F - 64.2 °F 77% 29.93 in 10.0 mi ESE 10.4 mph - N/A   Clear
5:35 PM 71.6 °F - 64.6 °F 78% 29.91 in 10.0 mi ESE 6.9 mph - N/A   Clear
5:55 PM 72.3 °F - 64.4 °F 76% 29.91 in 10.0 mi SE 5.8 mph - N/A   Clear
6:15 PM 72.5 °F - 64.4 °F 76% 29.92 in 10.0 mi Calm Calm - N/A   Clear
6:55 PM 70.7 °F - 65.5 °F 83% 29.95 in 10.0 mi Calm Calm - N/A   Clear
7:15 PM 70.7 °F - 66.4 °F 86% 29.93 in 10.0 mi Calm Calm - N/A   Clear
7:35 PM 69.8 °F - 67.1 °F 91% 29.94 in 10.0 mi West 3.5 mph - N/A   Clear
7:55 PM 68.9 °F - 66.7 °F 93% 29.93 in 10.0 mi West 5.8 mph - N/A   Clear
8:15 PM 69.4 °F - 66.4 °F 90% 29.94 in 10.0 mi WSW 3.5 mph - N/A   Clear
8:35 PM 68.9 °F - 66.6 °F 92% 29.94 in 10.0 mi SW 4.6 mph - N/A   Clear
8:55 PM 68.4 °F - 65.5 °F 90% 29.93 in 10.0 mi WSW 3.5 mph - N/A   Clear
9:15 PM 68.5 °F - 65.1 °F 89% 29.94 in 10.0 mi SW 4.6 mph - N/A   Clear
9:35 PM 67.6 °F - 64.9 °F 91% 29.94 in 10.0 mi SSW 5.8 mph - N/A   Clear
9:55 PM 67.1 °F - 64.8 °F 92% 29.96 in 10.0 mi NNE 9.2 mph - N/A   Clear
10:15 PM 67.5 °F - 64.9 °F 92% 29.96 in 10.0 mi NNE 8.1 mph - N/A   Clear
10:35 PM 67.6 °F - 64.8 °F 90% 29.96 in 10.0 mi Calm Calm - N/A   Clear
10:55 PM 66.7 °F - 64.6 °F 93% 29.96 in 10.0 mi Calm Calm - N/A   Clear
11:15 PM 66.2 °F - 64.2 °F 93% 29.97 in 10.0 mi Calm Calm - N/A   Clear
11:35 PM 65.8 °F - 64.4 °F 95% 29.98 in 10.0 mi Calm Calm - N/A   Clear
11:55 PM 65.5 °F - 63.9 °F 94% 29.97 in 10.0 mi Calm Calm - N/A   Clear